Location: Luxembourg
(49.6117°N, 6.1300°E)
Time: 17:52:23
(UTC+02:00)

BlueWalker 3 - Visible Passes

Search period start: 13 May 2026 00:00
Search period end: 23 May 2026 00:00
Orbit: 447 x 458 km, 53.2° (Epoch: 13 May)

Date Brightness Start Highest point End Pass type
(mag) Time Alt. Az. Time Alt. Az. Time Alt. Az.
13 May 2.0 02:52:58 51° SE 02:52:58 51° SE 02:56:09 10° ENE visible
13 May 2.4 04:26:38 10° W 04:30:07 52° NNW 04:33:36 10° ENE visible
14 May 3.0 02:17:10 30° E 02:17:10 30° E 02:19:19 10° ENE visible
14 May 2.2 03:50:46 17° W 03:53:18 58° NNW 03:56:48 10° ENE visible
15 May 3.8 01:41:18 18° E 01:41:18 18° E 01:42:27 10° ENE visible
15 May 2.0 03:14:54 30° W 03:16:28 66° NNW 03:20:00 10° ENE visible
15 May 2.8 04:50:46 10° WNW 04:54:12 45° N 04:57:38 10° ENE visible
16 May 4.4 01:05:21 11° E 01:05:21 11° E 01:05:32 10° E visible
16 May 1.7 02:38:57 53° W 02:39:39 76° NNW 02:43:13 10° ENE visible
16 May 2.8 04:13:55 10° WNW 04:17:21 44° N 04:20:46 10° ENE visible
17 May 1.6 02:02:55 86° NE 02:02:55 86° NE 02:06:25 10° ENE visible
17 May 2.8 03:37:04 10° WNW 03:40:29 45° N 03:43:55 10° ENE visible
18 May 2.1 01:26:45 53° E 01:26:45 53° E 01:29:35 10° ENE visible
18 May 2.7 03:00:20 11° W 03:03:37 47° N 03:07:04 10° ENE visible
18 May 2.4 04:37:52 10° WNW 04:41:22 57° NNE 04:44:52 10° E visible
19 May 2.5 00:50:20 39° E 00:50:20 39° E 00:52:46 10° ENE visible
19 May 2.6 02:23:54 14° W 02:26:46 49° N 02:30:13 10° ENE visible
19 May 2.6 04:01:03 10° WNW 04:04:31 52° N 04:08:00 10° E visible
20 May 2.4 00:13:24 38° E 00:13:24 38° E 00:15:55 10° ENE visible
20 May 2.4 01:46:54 13° W 01:49:53 54° NNW 01:53:23 10° ENE visible
20 May 2.7 03:24:12 10° WNW 03:27:39 48° N 03:31:06 10° E visible
20 May 1.7 05:01:39 10° WNW 05:05:11 68° SSW 05:08:42 10° SE visible
20 May 2.1 23:33:08 15° SSW 23:35:42 40° SE 23:39:02 10° ENE visible
21 May 2.2 01:09:31 10° W 01:13:01 60° NNW 01:16:33 10° ENE visible
21 May 2.8 02:47:20 10° WNW 02:50:46 46° N 02:54:12 10° E visible
21 May 1.6 04:24:49 10° WNW 04:28:22 83° SSW 04:31:55 10° ESE visible
21 May 2.4 22:55:45 10° SSW 22:58:56 31° SE 23:02:07 10° ENE visible
22 May 2.0 00:32:38 10° WSW 00:36:10 68° NNW 00:39:42 10° ENE visible
22 May 2.8 02:10:27 10° WNW 02:13:52 45° N 02:17:18 10° ENE visible
22 May 1.7 03:47:58 10° WNW 03:51:32 83° NNE 03:55:05 10° ESE visible
22 May 2.7 22:19:13 10° SSW 22:22:11 25° SE 22:25:09 10° E visible
